Change the Weather History Date:

Tuesday, August 19, 2014

  Actual Average Record
Temperature  
Mean Temperature 64 °F -  
Max Temperature 73 °F 78 °F 89 °F (1966)
Min Temperature 55 °F 60 °F 49 °F (1958)
Degree Days  
Heating Degree Days 1    
Growing Degree Days 14 (Base 50)    
Moisture  
Dew Point 56 °F    
Average Humidity 76    
Maximum Humidity 100    
Minimum Humidity 51    
Precipitation  
Precipitation 0.00 in - - ()
Sea Level Pressure  
Sea Level Pressure 29.91 in    
Wind  
Wind Speed 6 mph (ESE)    
Max Wind Speed 12 mph    
Max Gust Speed -    
Visibility 10 miles    
Events      
Averages and records for this station are not official NWS values.
T = Trace of Precipitation, MM = Missing Value Source: NWS Daily Summary

Daily Weather History Graph

Daily Weather History Graph

Search for Another Location

Airport or City:

Trip Planner

Search our weather history database for the weather conditions in past years. The results will help you decide how hot, cold, wet, or windy it might be!

Date:

Astronomy

Aug. 19, 2014 Rise Set
Actual Time 6:01 AM EDT 7:41 PM EDT
Civil Twilight 5:31 AM EDT 8:10 PM EDT
Nautical Twilight 4:56 AM EDT 8:46 PM EDT
Astronomical Twilight 4:18 AM EDT 9:24 PM EDT
Moon 12:50 AM EDT (8/19) 3:36 PM EDT (8/19)
Length of Visible Light 14h 38m
Length of Day
13h 40m
Waning Crescent, 29% of the Moon is Illuminated
Aug 19
Waning Crescent
Aug 25
New
Sep 2
First Quarter
Sep 8
Full
Sep 15
Last Quarter

Hourly Weather History & Observations

Time (EDT) Temp. Dew Point Humidity Pressure Visibility Wind Dir Wind Speed Gust Speed Precip Events Conditions
12:56 AM 57.9 °F 53.1 °F 84% 29.88 in 10.0 mi North 5.8 mph - N/A   Clear
1:56 AM 57.0 °F 52.0 °F 83% 29.88 in 10.0 mi North 4.6 mph - N/A   Mostly Cloudy
2:56 AM 55.9 °F 52.0 °F 87% 29.88 in 10.0 mi North 6.9 mph - N/A   Partly Cloudy
3:56 AM 55.0 °F 53.1 °F 93% 29.89 in 10.0 mi North 5.8 mph - N/A   Clear
4:56 AM 55.0 °F 53.1 °F 93% 29.89 in 10.0 mi NNE 6.9 mph - N/A   Clear
5:56 AM 55.0 °F 52.0 °F 89% 29.90 in 10.0 mi NNE 6.9 mph - N/A   Clear
6:56 AM 55.9 °F 53.1 °F 90% 29.91 in 10.0 mi North 8.1 mph - N/A   Partly Cloudy
7:56 AM 61.0 °F 53.1 °F 75% 29.92 in 10.0 mi NNE 6.9 mph - N/A   Partly Cloudy
8:56 AM 66.0 °F 55.0 °F 68% 29.92 in 10.0 mi North 5.8 mph - N/A   Clear
9:56 AM 70.0 °F 51.1 °F 51% 29.93 in 10.0 mi NE 5.8 mph - N/A   Clear
10:56 AM 70.0 °F 55.9 °F 61% 29.94 in 10.0 mi South 6.9 mph - N/A   Clear
11:56 AM 72.0 °F 54.0 °F 53% 29.93 in 10.0 mi SSE 8.1 mph - N/A   Clear
12:56 PM 72.0 °F 57.0 °F 59% 29.93 in 10.0 mi South 10.4 mph - N/A   Clear
1:56 PM 72.0 °F 55.0 °F 55% 29.92 in 10.0 mi South 11.5 mph - N/A   Clear
2:56 PM 73.0 °F 55.9 °F 55% 29.91 in 10.0 mi South 11.5 mph - N/A   Clear
3:56 PM 72.0 °F 55.9 °F 57% 29.91 in 10.0 mi South 9.2 mph - N/A   Clear
4:56 PM 71.6 °F 59.0 °F 64% 29.91 in 10.0 mi South 9.2 mph - N/A   Clear
5:56 PM 71.1 °F 60.1 °F 68% 29.91 in 10.0 mi South 9.2 mph - N/A   Clear
6:56 PM 69.1 °F 62.1 °F 78% 29.91 in 10.0 mi South 8.1 mph - N/A   Clear
7:56 PM 66.9 °F 63.0 °F 87% 29.92 in 10.0 mi South 4.6 mph - N/A   Clear
8:56 PM 66.0 °F 63.0 °F 90% 29.94 in 10.0 mi ESE 3.5 mph - N/A   Clear
9:56 PM 61.0 °F 60.1 °F 97% 29.94 in 10.0 mi Calm Calm - N/A   Clear
10:56 PM 60.1 °F 59.0 °F 96% 29.94 in 10.0 mi Calm Calm - N/A   Clear
11:56 PM 59.0 °F 59.0 °F 100% 29.95 in 10.0 mi Calm Calm - N/A   Clear